TimeMDT,TemperatureF,Dew PointF,Humidity,Sea Level PressureIn,VisibilityMPH,Wind Direction,Wind SpeedMPH,Gust SpeedMPH,PrecipitationIn,Events,Conditions,WindDirDegrees,DateUTC
12:53 AM,37.4,21.2,52,30.12,10.0,Calm,Calm,-,N/A,,Scattered Clouds,0,2013-04-26 06:53:00
1:53 AM,33.1,21.9,64,30.10,10.0,Calm,Calm,-,N/A,,Clear,0,2013-04-26 07:53:00
2:53 AM,30.0,21.9,72,30.12,10.0,SE,6.9,-,N/A,,Clear,130,2013-04-26 08:53:00
3:53 AM,28.0,21.9,78,30.13,10.0,SE,4.6,-,N/A,,Clear,130,2013-04-26 09:53:00
4:53 AM,28.9,21.9,75,30.14,10.0,Calm,Calm,-,N/A,,Clear,0,2013-04-26 10:53:00
5:53 AM,27.0,21.0,78,30.17,10.0,Calm,Calm,-,N/A,,Clear,0,2013-04-26 11:53:00
6:53 AM,25.0,21.0,85,30.19,10.0,Calm,Calm,-,N/A,,Clear,0,2013-04-26 12:53:00
7:53 AM,30.0,23.0,75,30.20,10.0,Calm,Calm,-,N/A,,Clear,0,2013-04-26 13:53:00
8:53 AM,39.0,25.0,57,30.19,10.0,Calm,Calm,-,N/A,,Clear,0,2013-04-26 14:53:00
9:53 AM,48.9,25.0,39,30.17,10.0,Calm,Calm,-,N/A,,Clear,0,2013-04-26 15:53:00
10:53 AM,51.1,23.0,33,30.16,10.0,Calm,Calm,-,N/A,,Clear,0,2013-04-26 16:53:00
11:53 AM,55.0,21.0,27,30.14,10.0,Variable,5.8,-,N/A,,Clear,0,2013-04-26 17:53:00
12:53 PM,59.0,19.0,21,30.13,10.0,Variable,4.6,18.4,N/A,,Clear,0,2013-04-26 18:53:00
1:53 PM,60.1,19.0,20,30.13,10.0,Variable,3.5,-,N/A,,Clear,0,2013-04-26 19:53:00
2:53 PM,63.0,18.0,18,30.12,10.0,West,11.5,17.3,N/A,,Clear,270,2013-04-26 20:53:00
3:53 PM,64.9,19.9,18,30.12,10.0,WNW,11.5,23.0,N/A,,Clear,300,2013-04-26 21:53:00
4:53 PM,64.9,21.9,19,30.11,10.0,NW,15.0,24.2,N/A,,Clear,310,2013-04-26 22:53:00
5:53 PM,64.9,24.1,21,30.12,10.0,NW,18.4,-,N/A,,Clear,320,2013-04-26 23:53:00
6:53 PM,63.0,23.0,22,30.14,10.0,NW,16.1,24.2,N/A,,Clear,310,2013-04-27 00:53:00
7:53 PM,60.1,24.1,25,30.14,10.0,NW,13.8,-,N/A,,Clear,320,2013-04-27 01:53:00
8:53 PM,55.9,24.1,29,30.15,10.0,WNW,5.8,-,N/A,,Clear,290,2013-04-27 02:53:00
9:53 PM,54.0,25.0,33,30.14,10.0,West,10.4,-,N/A,,Clear,270,2013-04-27 03:53:00
10:53 PM,50.0,26.1,39,30.17,10.0,North,4.6,-,N/A,,Clear,360,2013-04-27 04:53:00
11:53 PM,45.0,26.1,48,30.17,10.0,Calm,Calm,-,N/A,,Clear,0,2013-04-27 05:53:00